Ukiah, CA

8:35 PM PDT on August 31, 2016 (GMT -0700)
Ukiah Municipal

Weather History for KUKI - November, 2010

Change the Weather History Date:

Monday, November 29, 2010

  Actual Average Record
Temperature  
Mean Temperature 41 °F 47 °F  
Max Temperature 54 °F 58 °F 78 °F (1949)
Min Temperature 28 °F 37 °F 19 °F (2015)
Degree Days  
Heating Degree Days 24 18  
Month to date heating degree days 422 405  
Since 1 July heating degree days 613 605  
Cooling Degree Days 0 0  
Month to date cooling degree days 0 0  
Year to date cooling degree days 783 835  
Moisture  
Dew Point 31 °F    
Average Humidity 73    
Maximum Humidity 100    
Minimum Humidity 45    
Precipitation  
Precipitation 0.00 in 0.19 in 2.48 in (2012)
Month to date precipitation 3.83 4.06  
Year to date precipitation 43.26 30.19  
Since 1 July precipitation 10.78  
Snow  
Snow 0.00 in - - ()
Month to date snowfall 0.0  
Since 1 July snowfall 0.0  
Since 1 September snowfall 0.0  
Snow Depth 0.00 in    
Sea Level Pressure  
Sea Level Pressure 30.38 in    
Wind  
Wind Speed 0 mph (NW)    
Max Wind Speed 5 mph    
Max Gust Speed -    
Visibility 4 miles    
Events Fog    
T = Trace of Precipitation, MM = Missing Value Source: NWS Daily Summary

Daily Weather History Graph

Daily Weather History Graph

Search for Another Location

Airport or City:

Trip Planner

Search our weather history database for the weather conditions in past years. The results will help you decide how hot, cold, wet, or windy it might be!

Date:

Astronomy

Nov. 29, 2010 Rise Set
Actual Time 7:11 AM PST 4:51 PM PST
Civil Twilight 6:41 AM PST 5:20 PM PST
Nautical Twilight 6:08 AM PST 5:53 PM PST
Astronomical Twilight 5:36 AM PST 6:25 PM PST
Moon 12:26 AM PST (11/29) 12:52 PM PST (11/29)
Length of Visible Light 10h 38m
Length of Day
9h 39m
Last Quarter, 39% of the Moon is Illuminated
Nov 29
Last Quarter
Dec 5
New
Dec 13
First Quarter
Dec 21
Full
Dec 27
Last Quarter

Hourly Weather History & Observations

Time (PST) Temp. Windchill Dew Point Humidity Pressure Visibility Wind Dir Wind Speed Gust Speed Precip Events Conditions
12:07 AM 33.8 °F - 30.2 °F 87% 30.30 in 5.0 mi Calm Calm - N/A   Scattered Clouds
12:56 AM 30.9 °F - 30.0 °F 96% 30.31 in 7.0 mi Calm Calm - N/A   Clear
1:18 AM 30.2 °F - 30.2 °F 100% 30.31 in 2.5 mi Calm Calm - N/A   Clear
1:37 AM 30.2 °F - 28.4 °F 93% 30.32 in 6.0 mi Calm Calm - N/A   Clear
1:56 AM 30.9 °F - 28.9 °F 92% 30.32 in 8.0 mi Calm Calm - N/A   Clear
2:56 AM 30.0 °F - 28.0 °F 92% 30.34 in 8.0 mi Calm Calm - N/A   Clear
3:08 AM 30.2 °F - 28.4 °F 93% 30.34 in 10.0 mi Calm Calm - N/A   Scattered Clouds
3:17 AM 30.2 °F - 30.2 °F 100% 30.34 in 5.0 mi Calm Calm - N/A   Mostly Cloudy
3:21 AM 30.2 °F - 30.2 °F 100% 30.34 in 1.8 mi Calm Calm - N/A   Mostly Cloudy
3:36 AM 30.2 °F - 30.2 °F 100% 30.34 in 3.0 mi Calm Calm - N/A   Overcast
3:50 AM 30.2 °F - 30.2 °F 100% 30.35 in 1.8 mi Calm Calm - N/A   Overcast
3:56 AM 30.9 °F - 30.0 °F 96% 30.35 in 0.5 mi Calm Calm - N/A Fog Light Freezing Fog
3:59 AM 30.2 °F - 30.2 °F 100% 30.35 in 0.2 mi Calm Calm - N/A Fog Light Freezing Fog
4:17 AM 30.2 °F - 30.2 °F 100% 30.35 in 0.8 mi Calm Calm - N/A   Overcast
4:48 AM 30.2 °F - 28.4 °F 93% 30.36 in 1.8 mi Calm Calm - N/A   Overcast
4:56 AM 30.0 °F - 28.9 °F 96% 30.37 in 2.0 mi Calm Calm - N/A   Overcast
5:00 AM 30.2 °F - 28.4 °F 93% 30.36 in 1.5 mi Calm Calm - N/A   Overcast
5:09 AM 30.2 °F - 28.4 °F 93% 30.37 in 0.8 mi Calm Calm - N/A   Overcast
5:18 AM 28.4 °F - 28.4 °F 100% 30.37 in 0.5 mi Calm Calm - N/A Fog Light Freezing Fog
5:28 AM 28.4 °F - 28.4 °F 100% 30.37 in 0.5 mi Calm Calm - N/A Fog Light Freezing Fog
5:41 AM 28.4 °F - 28.4 °F 100% 30.38 in 1.2 mi Calm Calm - N/A   Overcast
5:48 AM 30.2 °F - 30.2 °F 100% 30.38 in 0.8 mi Calm Calm - N/A   Overcast
5:56 AM 30.0 °F - 30.0 °F 100% 30.39 in 0.5 mi Calm Calm - N/A Fog Light Freezing Fog
6:29 AM 30.2 °F - 30.2 °F 100% 30.39 in 1.2 mi Calm Calm - N/A   Overcast
6:41 AM 30.2 °F - 30.2 °F 100% 30.40 in 0.2 mi Calm Calm - N/A Fog Light Freezing Fog
6:56 AM 30.0 °F - 30.0 °F 100% 30.41 in 0.2 mi Calm Calm - N/A Fog Light Freezing Fog
7:04 AM 30.2 °F - 30.2 °F 100% 30.40 in 0.5 mi Calm Calm - N/A Fog Light Freezing Fog
7:23 AM 30.2 °F - 30.2 °F 100% 30.41 in 0.2 mi Calm Calm - N/A Fog Light Freezing Fog
7:37 AM 30.2 °F - 30.2 °F 100% 30.41 in 0.2 mi Calm Calm - N/A Fog Light Freezing Fog
7:47 AM 30.2 °F - 30.2 °F 100% 30.41 in 0.2 mi Calm Calm - N/A Fog Light Freezing Fog
7:56 AM 30.2 °F - 30.2 °F 100% 30.41 in 0.2 mi Calm Calm - N/A Fog Light Freezing Fog
8:56 AM 30.9 °F - 30.9 °F 100% 30.43 in 0.2 mi Calm Calm - N/A Fog Light Freezing Fog
9:40 AM 33.8 °F - 33.8 °F 100% 30.44 in 1.0 mi Calm Calm - 0.01 in   Mist
9:46 AM 33.8 °F - 33.8 °F 100% 30.44 in 3.0 mi Calm Calm - 0.01 in   Mostly Cloudy
9:56 AM 34.0 °F - 34.0 °F 100% 30.45 in 10.0 mi Calm Calm - 0.01 in   Mostly Cloudy
10:03 AM 35.6 °F - 33.8 °F 93% 30.44 in 10.0 mi Calm Calm - N/A   Partly Cloudy
10:56 AM 39.9 °F - 35.1 °F 83% 30.43 in 10.0 mi Calm Calm - N/A   Clear
11:56 AM 46.0 °F - 33.1 °F 61% 30.41 in 10.0 mi Calm Calm - N/A   Clear
12:56 PM 48.9 °F - 34.0 °F 56% 30.38 in 10.0 mi Calm Calm - N/A   Clear
1:56 PM 53.1 °F - 32.0 °F 45% 30.36 in 10.0 mi Calm Calm - N/A   Clear
2:56 PM 54.0 °F - 33.1 °F 45% 30.36 in 10.0 mi Calm Calm - N/A   Clear
3:56 PM 50.0 °F - 35.6 °F 58% 30.36 in 10.0 mi West 4.6 mph - N/A   Clear
4:56 PM 46.9 °F - 37.9 °F 71% 30.37 in 10.0 mi Calm Calm - N/A   Clear
5:56 PM 45.0 °F - 36.0 °F 71% 30.38 in 10.0 mi Calm Calm - N/A   Clear
6:56 PM 42.1 °F - 37.0 °F 82% 30.39 in 6.0 mi Calm Calm - N/A   Haze
7:56 PM 41.0 °F - 36.0 °F 82% 30.41 in 7.0 mi Calm Calm - N/A   Clear
8:56 PM 39.0 °F 36.8 °F 36.0 °F 89% 30.43 in 7.0 mi North 3.5 mph - N/A   Clear
9:56 PM 37.0 °F - 35.1 °F 93% 30.43 in 10.0 mi Calm Calm - N/A   Clear
10:56 PM 36.0 °F - 35.1 °F 97% 30.45 in 10.0 mi Calm Calm - N/A   Clear
11:56 PM 35.1 °F - 34.0 °F 96% 30.45 in 10.0 mi Calm Calm - N/A   Clear